Back to catalog

STARLINK-11130

AliveCommunicationsVLEO
NORAD 59950·PAYLOAD·🇺🇸 United States

Launched Jun 5, 2024 from Cape Canaveral Space Force Station

Loading…

Next Passes (next 24 hours)

TLE

FreshSource: CelesTrak SupGP

Epoch: Sep 14, 2026, 22:21 UTC

1 59950C 24107F   26257.93173611  .00060636  00000+0  49930-3 0  2570
2 59950  53.1571  38.5107 0001094  80.6836  28.4158 15.69687473    16

Track STARLINK-11130 in real time with AllMySat

Download on the App Store